Starlink 5383

operational
NORAD ID: 54827 Int'l Des: 2022-177 Owner: SPXS Country: US Constellation: starlink
LEOCIRCULAR

Über Starlink 5383

Beschreibung wird geladen...

Live-Position

3D-Globus wird geladen...

Nächste Überflüge

Höhenverlauf

Altitude vs Time

uPlot chart will show altitude changes over time

Zweizeiliger Elementsatz

1 54827U 22177H 25302.51551138 .00000648 00000-0 63013-4 0 9991
2 54827 43.0012 126.0660 0001131 269.3483 90.7230 15.02538500157238
Epoch: 29. Okt. 2025 • Age: 15 hours

Aktueller Status

Höhe 558.9 km
Geschwindigkeit 7.59 km/s
Subsatellitenpunkt 20.69°N, 170.66°W
Startdatum 28. Dez. 2022
Alter 2.8 years
Typ internet

Technische Details

Klassifizierung Payload
Masse 305.00 kg
Trockenmasse 290.00 kg
Gesamtmasse 305.00 kg
Länge 0.20 m
Durchmesser 2.80 m
Spannweite 9.00 m
Form Box + pan
Hersteller SPXS
Bus-Typ Starlink
Phasenstatus In Orbit
Besitzer/Staat SPXS/US

Große Konstellationen

Loading constellations...